Temp
9 9 10 10 11 12 12 13 13 12 11 11 13 11 13 13 13 13 14 14 14 15 15 14 12 13 13 14 14 14 12 13 8 11 13 13 13 13 13 8 12 9 8 8
8 9 9 10 11 11 10 14 14 13 12 12 11 13 12 13 13 13 14 13 14 14 14 13 12 13 13 13 14 13 13 12 10 11 11 12 11 13 13 13 10 10 8 9
9 9 10 10 11 11 11 13 12 13 13 14 13 13 13 12 12 13 13 13 14 14 14 14 13 12 12 13 13 12 12 13 11 10 13 12 10 12 12 11 8 10 10 10
8 9 9 10 11 12 12 12 11 10 13 12 13 14 14 13 12 13 13 13 14 13 14 14 13 10 11 12 11 12 12 11 13 13 14 14 13 12 12 10 11 11 13 12
9 8 9 9 11 12 12 12 12 11 12 12 14 12 13 14 12 13 13 12 14 14 14 13 14 12 12 13 11 12 12 11 12 10 12 12 12 13 13 13 13 12 12 12
9 8 8 8 10 12 12 10 10 10 10 12 12 12 13 13 13 12 13 13 13 13 13 12 13 12 13 13 12 11 12 11 11 10 13 12 10 13 13 12 13 13 12 14
8 8 8 8 9 9 9 8 9 11 11 11 13 12 12 12 12 12 12 12 13 10 12 12 12 12 13 13 12 12 12 11 11 9 11 11 14 14 14 13 13 13 14 14
8 8 7 7 8 9 8 8 8 10 12 12 11 11 12 11 11 11 12 11 9 11 12 11 11 10 11 11 11 10 11 10 10 10 10 11 15 13 14 13 13 15 13 13
8 7 7 7 7 7 7 8 8 9 10 11 12 11 11 11 10 9 10 9 9 10 10 11 12 10 13 9 7 8 8 10 9 10 10 11 14 13 13 13 10 15 14 14
7 7 7 7 7 7 7 7 7 7 9 10 11 11 11 12 11 10 9 8 8 9 9 10 8 11 12 10 10 6 8 8 7 8 8 10 14 12 12 13 13 14 15 13
7 6 7 7 6 7 7 7 7 7 7 9 9 10 10 9 9 10 8 8 7 7 9 10 11 10 11 11 11 8 7 7 6 8 9 8 12 11 12 12 14 13 12 12
7 7 6 6 6 6 6 7 7 7 6 7 8 8 8 8 8 9 8 9 9 9 9 10 10 10 9 11 11 12 9 11 10 9 9 13 12 13 12 12 12 11 12 11
6 6 7 6 6 6 6 6 7 6 6 7 6 7 6 7 7 8 8 8 9 9 7 8 8 9 10 10 9 11 10 11 9 11 13 13 13 13 12 13 11 12 12 11
5 6 6 6 6 6 5 6 6 6 7 6 7 6 6 5 6 6 7 7 7 8 7 7 7 8 10 9 9 9 10 9 9 9 11 12 12 13 12 12 11 10 10 9
5 5 5 5 6 6 6 6 5 6 6 6 7 8 4 4 5 5 5 6 7 6 6 6 6 7 8 7 7 7 7 8 8 10 12 11 12 10 10 10 9 9 9 9
5 5 5 5 5 6 5 6 5 5 5 5 6 4 4 4 5 5 5 6 5 6 6 6 7 7 8 7 7 10 10 10 10 11 10 10 10 9 10 8 8 8 7 7
4 5 5 5 5 5 6 5 5 5 5 6 5 5 3 3 4 4 4 5 5 5 6 5 6 6 6 6 7 10 10 9 9 9 8 8 9 7 7 7 7 7 6 6
4 5 5 5 5 5 5 5 5 5 5 5 5 5 4 3 4 4 3 4 4 4 4 5 4 4 5 5 7 8 8 8 8 7 7 7 7 7 6 7 6 4 4 4
4 5 5 5 4 5 3 4 5 4 4 4 4 5 6 3 3 3 3 3 4 2 3 4 4 4 4 6 7 6 6 6 5 5 6 5 5 5 5 5 4 4 4 4
4 5 5 4 3 3 3 3 4 4 3 3 4 4 5 4 4 4 3 3 4 4 4 3 3 5 6 7 6 6 6 5 5 4 4 4 4 5 4 4 5 4 4 5
4 4 3 3 3 3 4 4 4 3 4 3 3 3 3 3 3 3 4 2 4 3 4 4 4 3 5 4 4 4 4 4 4 5 5 5 4 4 4 4 5 5 5 5
2 2 2 3 3 3 3 3 3 3 4 2 3 3 2 3 2 3 3 4 3 4 2 3 3 3 2 2 3 3 3 3 3 4 4 5 5 5 5 5 5 5 6 6
2 2 1 1 1 2 3 1 3 4 2 1 1 2 3 2 1 3 3 3 3 2 3 3 1 4 3 2 2 3 3 4 5 4 4 4 4 4 4 4 4 5 5 5
1 -0 -1 -0 -0 1 3 3 2 1 1 1 2 1 3 3 3 3 3 4 2 3 3 2 0 3 3 3 2 2 2 2 3 3 3 3 3 3 3 3 4 4 4 4
-0 -1 -1 -1 1 0 1 1 1 0 0 0 1 0 1 3 3 4 3 4 3 4 2 3 1 2 1 1 1 0 0 0 1 1 1 1 1 2 2 3 3 3 2 2
-2 -1 -0 1 0 -1 1 1 2 1 1 1 -0 -0 -1 -0 3 3 3 1 0 2 3 1 2 2 1 1 2 2 2 2 1 2 2 2 2 2 3 2 2 2 2 2
-2 -4 -0 -1 -1 -1 -1 -0 0 3 -1 -2 -2 -2 -1 -2 -2 0 1 0 1 1 0 0 2 2 2 2 3 4 4 3 3 3 3 2 2 2 1 1 1 2 2 2
Height
835 830 825 820 814 809 808 807 808 808 808 812 810 824 819 821 824 823 823 822 822 820 822 826 834 831 831 832 831 832 839 839 871 854 843 843 844 843 845 873 852 865 875 858
837 832 826 821 816 810 809 807 808 809 808 814 822 822 825 824 825 825 823 824 824 825 825 832 834 834 835 835 833 835 837 844 861 851 851 848 849 841 840 839 857 861 879 848
838 833 828 822 817 812 811 809 817 811 810 808 815 819 822 828 829 828 827 827 825 825 826 827 834 838 838 837 836 840 840 836 843 856 837 836 849 839 837 846 871 850 840 827
839 835 830 824 818 813 813 812 822 824 819 820 818 815 819 823 828 827 828 828 826 827 828 827 830 843 840 840 841 841 841 844 835 831 828 828 829 831 833 841 832 838 814 815
840 837 832 826 820 816 815 817 819 821 822 822 817 825 822 822 826 826 827 828 824 826 826 828 828 833 837 835 841 839 838 844 834 840 826 825 826 822 821 820 819 821 821 812
840 837 834 829 824 819 819 822 822 821 826 822 823 824 824 822 824 829 827 826 826 829 829 830 830 832 831 832 836 840 838 842 842 841 820 823 834 810 811 812 810 810 816 797
839 838 836 832 829 826 826 826 825 821 824 824 821 824 826 826 826 826 828 829 828 836 833 832 832 832 832 833 833 835 837 839 839 847 831 830 803 797 798 802 802 800 798 795
840 837 836 835 833 830 828 827 827 825 820 821 826 827 826 830 831 830 830 831 836 834 833 835 832 837 836 835 837 843 840 844 848 847 843 819 794 800 800 803 800 791 796 794
840 838 836 835 835 834 831 830 829 829 827 826 823 825 827 828 832 836 835 838 838 836 835 834 830 837 819 847 854 851 851 844 853 841 847 830 798 801 800 801 815 790 791 793
842 839 837 836 835 834 833 832 831 831 829 825 826 825 826 825 827 831 835 839 841 840 839 839 845 828 823 833 836 859 854 852 860 856 851 826 795 800 801 805 804 791 790 793
840 841 839 835 836 835 834 835 833 833 832 827 825 827 827 828 828 828 837 839 842 844 841 833 829 831 827 826 825 840 847 854 858 851 843 842 798 803 805 798 791 792 794 791
837 839 839 838 834 836 835 834 834 834 833 831 828 825 826 828 829 828 833 833 834 835 837 832 830 829 834 824 822 817 831 817 825 827 819 794 794 794 792 790 791 790 789 787
838 837 836 838 835 835 836 834 833 832 831 829 828 826 825 826 828 829 830 832 829 831 832 835 835 834 827 828 826 814 814 812 818 811 792 791 791 789 789 786 788 785 784 784
838 838 837 833 835 834 835 834 833 833 833 834 827 826 826 827 828 827 828 830 831 832 833 834 834 834 823 827 823 823 816 816 814 811 797 793 787 788 790 789 787 785 783 781
836 836 836 834 832 831 835 834 833 831 837 834 828 826 829 827 827 826 828 829 830 834 836 838 837 828 827 825 828 822 816 813 816 806 794 795 790 790 788 787 786 784 781 776
833 833 834 833 831 830 833 835 833 831 831 835 831 829 829 829 828 827 828 828 830 831 834 834 827 825 826 828 823 800 797 798 799 798 794 793 790 788 789 789 787 783 780 776
832 831 831 830 829 831 832 835 836 834 833 831 832 828 831 830 829 830 831 829 829 830 829 831 828 828 828 827 819 800 797 797 796 794 795 794 790 792 790 788 785 782 779 775
830 830 829 829 829 831 834 832 834 836 834 834 833 829 831 830 829 831 831 831 832 832 829 828 829 829 829 826 806 802 801 801 798 798 796 795 792 791 789 787 784 780 776 771
827 829 827 830 830 832 833 834 833 836 840 834 834 832 825 832 830 830 832 830 830 833 833 830 829 825 824 810 807 806 805 806 805 800 797 796 795 793 790 786 782 779 774 769
826 828 828 829 832 832 834 833 835 835 835 835 831 830 830 831 828 828 833 833 831 831 828 829 829 818 808 805 805 806 807 807 805 804 801 799 796 792 788 784 780 777 773 766
826 829 830 831 832 832 833 831 832 834 832 832 830 829 830 831 833 831 827 832 828 831 826 829 821 822 811 810 811 811 809 808 806 804 801 799 796 793 789 783 777 773 768 764
829 831 830 831 833 833 834 833 832 831 825 832 830 831 832 832 833 832 831 829 832 825 830 829 823 816 815 813 812 810 809 807 804 802 798 796 794 790 785 781 775 770 765 759
831 830 832 832 836 836 832 838 828 823 831 834 834 834 831 832 835 831 829 829 825 826 825 818 821 811 813 813 810 807 805 803 800 797 795 793 789 784 781 776 771 766 760 756
831 835 841 840 840 834 828 828 829 834 834 834 832 834 831 829 831 829 825 818 826 819 815 814 816 811 809 808 805 804 801 799 796 793 791 789 786 782 776 772 768 763 756 749
835 836 842 840 831 833 834 834 834 834 833 834 834 834 833 829 828 823 820 815 812 807 812 806 810 807 806 804 801 799 796 793 791 788 786 783 779 775 770 765 760 757 750 743
835 836 834 831 833 835 834 833 832 832 833 832 834 836 842 837 823 818 812 821 821 807 805 807 804 801 799 797 795 792 789 787 785 783 780 777 773 769 764 759 755 749 743 738
835 838 828 831 831 830 829 830 829 827 833 841 840 847 840 832 835 822 810 814 810 803 802 798 796 794 792 789 787 785 783 781 778 775 773 770 766 763 758 753 746 743 735 732
Wind_Speed
23 25 26 27 28 18 4 3 1 4 2 3 3 3 3 2 3 1 1 2 5 4 2 3 2 0 4 4 2 2 2 1 3 6 4 5 4 5 6 3 2 3 3 7
24 25 26 27 28 19 4 2 1 2 1 2 3 4 4 4 2 2 1 2 2 2 2 2 5 1 1 2 2 1 3 2 1 1 1 3 4 5 6 4 3 5 3 5
24 27 26 27 26 16 3 1 2 1 2 4 6 5 3 4 1 2 2 2 0 3 3 2 4 2 2 2 1 2 1 3 4 4 2 4 4 6 9 7 3 4 10 9
23 25 27 26 25 13 3 3 2 1 2 4 5 3 4 5 3 0 2 2 2 2 2 3 4 3 4 3 4 2 2 3 6 7 8 8 8 9 11 13 16 6 1 10
23 24 24 25 24 9 5 2 1 2 2 3 2 2 2 3 2 4 3 2 5 3 1 4 3 6 4 3 6 3 3 3 5 6 11 11 13 13 14 17 17 20 20 26
20 21 20 22 24 10 6 3 1 2 1 1 2 2 4 2 4 2 4 2 1 3 2 5 5 5 3 4 5 6 3 2 4 4 3 6 8 8 15 10 10 12 14 19
17 17 17 18 19 15 5 4 3 2 2 0 2 2 1 2 2 2 4 2 3 2 0 1 1 3 1 2 4 3 2 2 2 4 7 3 4 5 2 1 7 11 15 16
14 14 13 14 15 14 9 6 4 3 1 3 3 2 2 3 2 1 2 2 2 2 2 2 2 2 2 2 3 5 1 3 3 2 4 9 2 2 2 2 4 3 7 7
11 13 12 11 11 12 8 9 5 3 1 1 2 4 3 2 4 2 2 2 4 2 2 2 2 3 2 3 2 4 6 2 1 1 2 4 0 4 1 3 4 3 5 6
9 9 11 11 9 9 6 5 8 2 2 2 1 2 2 2 2 2 3 3 1 3 2 2 3 3 2 3 5 4 3 4 5 5 4 7 4 7 4 1 4 4 2 5
5 8 9 8 9 7 7 4 8 3 3 1 2 2 1 2 1 1 2 3 1 1 2 2 2 2 3 1 4 6 6 6 4 4 4 7 4 5 4 3 3 4 5 4
3 5 7 8 7 6 5 1 7 6 2 3 2 4 4 0 2 2 3 0 3 4 2 1 2 1 1 3 2 4 4 6 4 8 5 2 5 5 6 4 4 6 5 7
3 4 5 7 7 6 2 3 5 3 1 3 2 1 1 3 7 4 3 2 2 1 2 1 1 3 1 3 5 5 3 1 3 3 5 7 7 6 5 4 5 4 5 7
4 5 6 5 6 6 4 2 2 1 3 2 0 3 3 3 2 6 5 3 2 2 1 1 2 2 1 2 3 2 1 3 4 6 12 11 11 2 2 4 6 8 8 9
4 5 6 7 6 5 5 4 3 2 1 2 2 3 3 4 2 4 3 6 2 1 1 2 3 2 1 3 1 5 6 6 4 6 7 5 13 8 9 10 6 8 10 12
3 5 6 8 8 3 1 2 1 5 4 1 3 3 2 5 4 3 3 3 2 2 3 3 3 1 1 3 3 5 5 5 7 9 7 7 11 10 5 7 12 10 12 14
5 5 5 7 5 7 1 2 1 3 4 0 3 2 1 2 0 1 1 2 1 1 2 2 2 1 3 2 4 3 10 5 7 7 7 7 6 6 10 9 13 16 18 19
5 4 2 2 9 6 1 3 3 4 1 1 2 2 1 1 0 1 1 2 0 2 2 0 1 0 1 4 6 7 6 8 8 7 6 5 8 8 8 12 12 9 9 9
4 2 3 5 2 2 2 1 1 5 1 1 2 2 1 1 1 1 1 1 2 1 2 2 1 3 5 4 5 8 6 6 7 8 7 8 8 8 8 7 8 7 10 9
2 2 2 2 1 0 1 1 1 1 1 1 2 1 2 1 1 2 2 1 1 1 2 2 2 4 8 5 5 6 6 6 6 5 9 9 9 9 10 9 9 7 8 14
2 2 2 1 1 1 2 1 2 2 2 2 1 1 1 3 1 2 1 1 1 2 2 2 2 3 1 9 10 10 14 15 12 10 7 9 8 7 9 11 13 15 17 13
2 2 2 2 1 1 0 2 2 3 1 1 1 1 1 1 1 1 1 1 2 4 4 3 3 2 6 4 3 3 5 8 9 14 11 14 14 15 15 14 16 18 22 23
2 2 2 2 0 2 4 4 3 2 2 1 1 0 1 1 1 2 2 4 4 2 3 4 3 5 2 3 4 6 10 10 10 11 16 19 19 18 16 19 21 22 21 23
1 2 1 3 2 3 1 3 2 1 1 2 1 1 2 1 2 2 3 3 2 3 4 5 3 4 5 5 5 6 8 9 10 12 13 15 17 22 25 22 23 23 20 24
1 2 2 3 2 1 1 1 1 1 1 2 2 1 1 2 4 3 3 4 5 4 3 2 3 3 6 7 6 7 7 8 10 15 14 17 19 19 24 28 27 26 26 23
2 2 2 1 1 2 2 3 4 2 2 1 1 2 0 4 4 5 7 3 5 1 2 1 5 8 5 7 9 10 15 16 16 18 19 20 20 20 24 28 30 29 23 24
2 3 3 2 1 2 3 4 4 8 2 1 1 1 8 2 2 3 3 1 2 3 3 4 6 8 9 9 12 15 16 17 18 18 19 21 25 25 23 18 27 29 26 26
Wind_Direction
12 10 8 6 3 7 27 301 20 345 185 58 42 49 52 72 113 244 75 0 20 90 147 116 111 145 51 56 312 85 61 83 174 211 61 10 264 248 185 140 224 242 145 272
6 8 6 6 6 5 352 351 64 358 129 79 87 142 107 41 165 45 184 118 0 296 125 90 111 54 113 149 273 78 159 230 130 242 148 185 248 216 243 266 89 228 157 259
1 3 4 3 4 5 21 322 22 10 47 335 115 131 134 117 13 73 354 79 243 191 150 8 139 119 174 134 58 359 337 275 217 197 148 132 204 218 209 201 167 225 223 274
354 360 359 1 2 5 33 13 73 350 19 31 56 6 156 132 150 312 283 179 263 352 122 163 132 177 137 194 144 241 271 260 260 265 275 270 244 218 211 215 224 231 121 272
348 354 358 0 4 20 58 23 14 195 69 322 251 82 207 185 100 159 180 284 168 151 0 44 26 132 217 189 159 228 185 284 300 279 256 247 258 253 241 240 239 243 258 272
347 351 359 3 11 29 49 24 345 289 153 155 321 31 121 164 118 14 7 297 138 209 12 21 25 2 9 13 161 206 192 269 349 266 332 296 284 254 233 233 241 237 250 256
354 356 360 5 16 30 36 19 302 307 129 323 56 128 17 174 200 108 117 303 298 68 151 252 280 267 256 255 264 5 274 230 277 281 306 255 276 216 164 256 270 237 246 266
357 7 3 3 10 23 48 26 355 359 312 82 126 155 125 83 83 271 169 69 27 323 260 279 215 176 203 197 57 359 295 318 294 279 309 285 304 46 47 140 297 21 237 267
353 7 11 5 7 13 32 25 31 317 351 67 97 155 172 190 195 127 105 48 351 313 257 218 232 225 126 156 101 11 312 295 319 339 253 256 177 162 73 72 292 55 35 2
347 360 8 8 5 12 24 23 12 320 295 123 251 207 155 143 69 94 137 161 156 351 231 226 207 237 97 197 189 148 167 214 216 236 268 284 282 148 142 70 237 142 32 351
347 353 6 13 6 6 21 13 19 33 325 258 160 186 157 124 213 190 132 109 295 116 249 235 226 224 191 169 149 169 173 161 195 197 237 267 126 104 176 198 306 348 321 294
340 347 349 358 14 2 2 2 358 346 227 299 276 224 257 245 79 103 166 65 152 199 240 311 344 299 288 241 257 201 215 196 188 193 216 218 192 259 266 269 254 276 276 286
314 326 337 339 355 351 326 327 348 343 262 269 267 181 259 233 235 218 166 196 50 112 116 325 285 264 68 227 241 209 252 216 230 350 260 265 306 308 306 308 274 323 343 312
315 323 318 325 323 329 320 277 329 338 282 273 261 119 93 56 22 220 206 118 107 92 78 209 218 203 171 270 290 251 232 124 217 262 284 289 282 35 46 319 303 294 285 284
321 327 321 327 322 307 296 278 245 214 348 303 298 197 41 19 343 226 215 191 178 172 192 207 229 242 83 222 352 245 190 208 198 252 283 299 305 327 335 321 339 331 310 308
321 321 311 321 318 256 238 250 296 219 179 318 301 135 73 24 52 90 159 186 187 204 174 231 251 94 140 255 235 244 205 218 244 267 293 292 291 316 359 345 324 315 319 315
317 323 308 323 314 155 206 41 345 146 144 114 291 284 57 19 304 54 60 338 199 153 203 227 272 182 160 260 251 234 334 24 340 331 336 324 318 328 330 324 320 316 305 301
316 312 328 60 130 130 130 32 75 148 52 46 278 282 164 329 177 145 333 154 213 235 262 123 188 123 214 254 262 294 346 340 295 341 345 289 306 336 329 323 314 309 304 303
329 283 139 136 58 85 99 302 231 215 314 224 185 262 341 265 163 126 172 331 196 55 249 228 76 208 219 238 330 332 14 11 345 335 360 10 345 326 320 315 316 307 312 315
73 127 171 144 62 47 110 42 178 152 209 237 249 15 261 221 206 183 125 12 320 214 229 110 237 264 293 339 37 39 26 7 355 357 349 335 329 328 324 322 312 298 296 307
71 45 56 51 2 130 219 225 223 156 233 202 205 224 265 12 207 276 95 181 145 254 174 207 228 253 95 46 34 15 15 7 355 345 322 314 301 300 300 304 306 307 309 306
81 101 71 43 331 70 287 221 180 224 207 41 337 87 336 2 3 266 238 238 158 242 142 220 248 141 81 66 22 355 343 325 317 323 314 310 309 312 306 301 305 305 307 311
58 72 62 62 191 229 192 213 237 140 86 341 347 177 207 169 229 241 221 220 227 99 211 228 220 141 125 257 263 262 272 282 303 319 318 315 312 312 311 301 303 306 306 309
30 86 22 174 188 258 14 346 66 137 161 314 245 253 205 152 212 237 235 212 122 239 238 226 153 157 241 269 260 286 284 286 283 280 291 298 306 307 307 301 300 302 304 306
127 105 213 200 229 75 116 82 119 253 320 314 331 328 31 238 252 229 245 211 228 228 227 113 187 229 254 269 279 267 267 276 278 285 286 286 288 287 290 294 298 298 298 300
102 222 222 209 168 215 199 207 236 190 239 305 94 256 349 236 228 221 219 213 215 316 51 258 276 278 267 264 269 264 267 263 266 272 274 277 275 278 286 291 291 293 293 292
190 255 219 263 337 232 180 172 213 173 105 218 85 142 226 320 261 242 226 180 210 215 241 238 237 253 261 256 261 270 277 279 278 278 280 282 288 292 292 289 291 291 297 296